TimeEDT,TemperatureF,Dew PointF,Humidity,Sea Level PressureIn,VisibilityMPH,Wind Direction,Wind SpeedMPH,Gust SpeedMPH,PrecipitationIn,Events,Conditions,WindDirDegrees,DateUTC
12:53 AM,78.1,72.0,81,29.82,10.0,SSW,4.6,-,N/A,,Clear,200,2013-09-22 04:53:00
1:53 AM,78.1,72.0,81,29.81,10.0,SSE,5.8,-,N/A,,Clear,150,2013-09-22 05:53:00
2:53 AM,77.0,72.0,84,29.81,10.0,SSE,5.8,-,N/A,,Clear,160,2013-09-22 06:53:00
3:53 AM,77.0,73.0,88,29.78,10.0,SSE,5.8,-,N/A,,Clear,160,2013-09-22 07:53:00
4:53 AM,75.9,73.0,91,29.78,10.0,South,4.6,-,N/A,,Partly Cloudy,170,2013-09-22 08:53:00
5:53 AM,75.9,73.0,91,29.79,10.0,South,5.8,-,0.00,Rain,Light Rain,190,2013-09-22 09:53:00
6:03 AM,75.2,73.4,94,29.79,10.0,South,5.8,-,0.00,Rain,Light Rain,190,2013-09-22 10:03:00
6:23 AM,75.2,73.4,94,29.80,10.0,South,6.9,-,0.00,,Mostly Cloudy,190,2013-09-22 10:23:00
6:53 AM,77.0,73.0,88,29.79,10.0,South,9.2,-,0.00,,Partly Cloudy,190,2013-09-22 10:53:00
7:15 AM,75.2,73.4,94,29.82,9.0,WNW,10.4,17.3,0.00,Rain,Light Rain,290,2013-09-22 11:15:00
7:36 AM,75.2,73.4,94,29.81,10.0,Calm,Calm,-,0.01,,Mostly Cloudy,0,2013-09-22 11:36:00
7:53 AM,75.0,73.0,94,29.81,10.0,Calm,Calm,-,0.01,,Mostly Cloudy,0,2013-09-22 11:53:00
8:53 AM,75.9,73.0,91,29.81,10.0,SSW,5.8,-,N/A,,Partly Cloudy,200,2013-09-22 12:53:00
9:53 AM,80.1,73.0,79,29.82,10.0,SSW,10.4,-,N/A,,Clear,200,2013-09-22 13:53:00
10:53 AM,84.0,75.0,74,29.82,10.0,SSW,9.2,-,N/A,,Clear,200,2013-09-22 14:53:00
11:53 AM,87.1,73.9,65,29.82,10.0,WSW,10.4,-,N/A,,Partly Cloudy,240,2013-09-22 15:53:00
12:53 PM,87.1,72.0,61,29.81,10.0,SW,10.4,18.4,N/A,,Partly Cloudy,220,2013-09-22 16:53:00
1:53 PM,88.0,73.9,63,29.80,10.0,SW,9.2,-,N/A,,Partly Cloudy,230,2013-09-22 17:53:00
2:46 PM,75.2,73.4,94,29.82,2.0,West,10.4,21.9,0.05,Rain-Thunderstorm,Heavy Thunderstorms and Rain,270,2013-09-22 18:46:00
2:53 PM,75.9,73.9,94,29.81,1.5,SSW,5.8,-,0.08,Rain-Thunderstorm,Thunderstorms and Rain,210,2013-09-22 18:53:00
2:56 PM,75.2,73.4,94,29.80,2.0,Variable,3.5,-,0.00,Rain,Rain,0,2013-09-22 18:56:00
3:03 PM,75.2,73.4,94,29.79,8.0,Calm,Calm,-,0.00,Rain,Light Rain,0,2013-09-22 19:03:00
3:53 PM,79.0,73.9,84,29.80,10.0,WSW,4.6,-,0.00,,Clear,250,2013-09-22 19:53:00
4:53 PM,79.0,75.9,90,29.81,5.0,SW,5.8,-,0.01,Rain,Light Rain,230,2013-09-22 20:53:00
5:53 PM,78.1,73.0,84,29.82,10.0,WNW,3.5,-,0.03,,Clear,290,2013-09-22 21:53:00
6:53 PM,78.1,75.0,90,29.83,10.0,Calm,Calm,-,N/A,,Clear,0,2013-09-22 22:53:00
7:34 PM,77.0,75.2,94,29.83,10.0,Calm,Calm,-,N/A,,Scattered Clouds,0,2013-09-22 23:34:00
7:53 PM,77.0,75.9,96,29.83,10.0,Calm,Calm,-,N/A,,Scattered Clouds,0,2013-09-22 23:53:00
8:53 PM,75.9,75.0,97,29.85,10.0,Calm,Calm,-,0.00,,Clear,0,2013-09-23 00:53:00
9:53 PM,77.0,75.9,96,29.87,10.0,Calm,Calm,-,0.00,,Partly Cloudy,0,2013-09-23 01:53:00
10:53 PM,77.0,75.0,94,29.87,10.0,ENE,3.5,-,N/A,,Clear,70,2013-09-23 02:53:00
11:53 PM,75.9,75.0,97,29.88,10.0,Calm,Calm,-,0.00,,Partly Cloudy,0,2013-09-23 03:53:00